OpenBCM V1.08-5-g2f4a (Linux)

Packet Radio Mailbox

IZ3LSV

[San Dona' di P. JN]

 Login: GUEST





  
CX2SA  > KEPS     07.03.25 02:45l 324 Lines 15390 Bytes #113 (0) @ AMSAT
BID : ORB25066.1
Read: GUEST
Subj: 2Line Orbital Elements 25066.AMSAT
Path: IZ3LSV<DB0ERF<DK0WUE<PI8ZTM<OZ5BBS<CX2SA
Sent: 250307/0024Z @:CX2SA.SAL.URY.SOAM #:48873 [Salto] FBB7.00e $:ORB25066.1
From: CX2SA@CX2SA.SAL.URY.SOAM
To  : KEPS@AMSAT


QST de W1STR

AMSAT Orbital Elements for Amateur Satellites in TLE Format
>From Orbital Analysis Office
New England Sci-Tech STEM Education Center
Natick, MA March 07, 2025
To all radio amateurs


These element sets describe the orbits of various satellites
in use by the amateur radio community. For details see:
www.amsat.org/keplerian-elements-formats/

A daily update of element sets is available at:
www.amsat.org/tle/daily-bulletin.txt
or without bulletin text:
www.amsat.org/tle/dailytle.txt


AO-07
1 07530U 74089B   25065.61725079 -.00000023  00000-0  14944-3 0  9999
2 07530 101.9950  68.8658 0011902 304.1706 168.1425 12.53686806302161
UO-11
1 14781U 84021B   25065.45606497  .00003059  00000-0  33210-3 0  9994
2 14781  97.7434  33.8018 0006241 297.8963  62.1622 14.88840134187485
AO-27
1 22825U 93061C   25065.11039843  .00000197  00000-0  92533-4 0  9998
2 22825  98.7499 126.1393 0008977  39.1593 321.0238 14.30742539640066
FO-29
1 24278U 96046B   25065.59642216 -.00000029  00000-0  90450-5 0  9996
2 24278  98.5854 331.9497 0349121 228.5372 128.5302 13.53239424409920
NOAA-15
1 25338U 98030A   25065.72911952  .00000285  00000-0  13513-3 0  9996
2 25338  98.5463  93.0989 0009127 277.2233  82.7910 14.26901313394879
GO-32
1 25397U 98043D   25065.50373407  .00000202  00000-0  10750-3 0  9997
2 25397  98.9609  42.6880 0002269 107.1584 252.9843 14.24266354384759
ISS
1 25544U 98067A   25065.79262731  .00012468  00000-0  22778-3 0  9995
2 25544  51.6359  94.1869 0006272 350.9448 346.3820 15.49773953499278
NO-44
1 26931U 01043C   25065.28973092  .00000403  00000-0  18232-3 0  9993
2 26931  67.0526  14.1989 0005793 266.0269  94.0171 14.31643571223460
SO-50
1 27607U 02058C   25065.50363025  .00001991  00000-0  27002-3 0  9993
2 27607  64.5536 133.9159 0045236 357.4545   2.6323 14.81079169195149
CO-55
1 27844U 03031E   25065.53776382  .00000621  00000-0  29017-3 0  9992
2 27844  98.6796  75.0302 0010856 102.4301 257.8094 14.23855653125117
CO-57
1 27848U 03031J   25065.51259736  .00000525  00000-0  25128-3 0  9995
2 27848  98.6823  75.0815 0010637 117.6414 242.5846 14.23210815124841
RS-22
1 27939U 03042A   25065.71875179  .00002214  00000-0  36179-3 0  9990
2 27939  98.3174 232.9477 0010762 313.5843 103.0513 14.71881722146871
NOAA-18
1 28654U 05018A   25065.70351979  .00000295  00000-0  18001-3 0  9997
2 28654  98.8478 146.2347 0014656  42.7175 317.5134 14.13533794 20349
CO-58
1 28895U 05043F   25065.61224373  .00003311  00000-0  55557-3 0  9998
2 28895  98.2325 208.8962 0014084 245.7897 114.1837 14.70335335 33215
CO-65
1 32785U 08021C   25064.84879663  .00009636  00000-0  72600-3 0  9996
2 32785  97.7773  35.4692 0010825 163.3952 196.7629 15.02652492914764
AAUSAT2
1 32788U 08021F   25065.48595499  .00109851  00000-0  17451-2 0  9994
2 32788  97.6069  58.2809 0004365  86.5153 273.6598 15.52937966918466
CO-66
1 32791U 08021J   25064.66971015  .00020195  00000-0  10883-2 0  9994
2 32791  97.7215  42.8600 0006710 119.3394 240.8509 15.14811675916035
RS-30
1 32953U 08025A   25065.67786559  .00000022  00000-0  87902-4 0  9992
2 32953  82.4994 286.2193 0018659 252.5870 107.3170 12.43159748761736
NOAA-19
1 33591U 09005A   25065.69443689  .00000254  00000-0  15965-3 0  9992
2 33591  99.0092 129.8260 0012775 271.2345  88.7364 14.13301768828701
SRMSAT
1 37841U 11058D   25065.24210652  .00000563  00000-0  16270-3 0  9991
2 37841  19.9733  11.4584 0011912  96.6543  51.9314 14.11376879691621
ZACUBE-1
1 39417U 13066B   25065.40736355  .00009176  00000-0  82667-3 0  9996
2 39417  97.7690  23.0845 0045989  12.5688 347.6667 14.94991359610685
Delfi-N3xt
1 39428U 13066N   25065.37432674  .00012651  00000-0  13511-2 0  9994
2 39428  97.8360 344.2231 0086905 314.9056  44.5128 14.86158865604923
GOMX-1
1 39430U 13066Q   25065.56585737  .00003107  00000-0  49165-3 0  9998
2 39430  97.6973 290.0222 0134815 135.9791 225.2245 14.66982968601475
LO-74
1 39440U 13066AA  25065.41041746  .00005771  00000-0  60352-3 0  9990
2 39440  97.8406  10.7704 0065242 132.5280 228.1473 14.88455028607279
AO-73
1 39444U 13066AE  25065.44010672  .00013204  00000-0  10497-2 0  9995
2 39444  97.7558  27.2659 0041367 350.7353   9.3103 14.99883342609311
DTUSAT-2
1 40030U 14033W   25065.62793681  .00011128  00000-0  76746-3 0  9994
2 40030  98.0462  33.0562 0011024  34.9679 325.2268 15.05947724582606
EO-80
1 40032U 14033Y   25065.45391787  .00011979  00000-0  82407-3 0  9993
2 40032  98.0344  32.6589 0007846 336.0693  24.0166 15.06044725582049
LILACSAT-2
1 40908U 15049K   25065.71849301  .00015069  00000-0  43635-3 0  9996
2 40908  97.5161  83.9343 0011559 133.4918 226.7288 15.35614391523656
IO-86
1 40931U 15052B   25038.81889873  .00001817  00000-0  15548-3 0  9993
2 40931   6.0001 108.1159 0012838 187.7041 172.2889 14.78568669506492
Horyu-4
1 41340U 16012D   25065.29940200  .00024947  00000-0  80792-3 0  9991
2 41340  31.0001  50.1034 0007397 163.8517 196.2364 15.30796126498146
Lapan A3
1 41603U 16040E   25065.76164822  .00005355  00000-0  19382-3 0  9993
2 41603  97.1406  74.1414 0009397 242.6718 117.3567 15.28774302483297
CAS-2T
1 41847U 16066G   25065.63852699  .00002569  00000-0  37216-3 0  9993
2 41847  98.4279 140.9193 0348697 105.6364 258.3587 14.43080474437326
CAS-4B
1 42759U 17034B   25065.70908102  .00051045  00000-0  89011-3 0  9994
2 42759  43.0101 161.8552 0017508 343.6217  16.4076 15.49775414427816
CAS-4A
1 42761U 17034D   25065.73228885  .00052354  00000-0  89393-3 0  9990
2 42761  43.0137 159.5860 0018663 349.9156  10.1328 15.50335421427833
TechnoSat
1 42829U 17042E   25065.73218557  .00005551  00000-0  44318-3 0  9994
2 42829  97.3899 239.0098 0012048 243.7600 116.2387 15.00599790416497
AO-91
1 43017U 17073E   25065.56752019  .00011126  00000-0  59125-3 0  9992
2 43017  97.5446 298.8015 0182007 129.3589 232.3923 15.02225242394937
S-Net D
1 43186U 18014G   25065.27964204  .00008380  00000-0  51636-3 0  9991
2 43186  97.5703 329.2134 0009095 181.5182 178.6021 15.10185387387987
S-Net B
1 43187U 18014H   25065.28389075  .00008165  00000-0  50334-3 0  9995
2 43187  97.5706 329.1847 0010006 177.3822 182.7461 15.10168217387986
S-Net A
1 43188U 18014J   25065.28033699  .00008253  00000-0  50847-3 0  9991
2 43188  97.5715 329.3193 0009795 177.9294 182.1978 15.10188763387980
S-Net C
1 43189U 18014K   25065.48485340  .00008154  00000-0  50249-3 0  9994
2 43189  97.5730 329.5193 0011647 171.4206 188.7224 15.10167353386562
Ten-Koh
1 43677U 18084G   25065.55217954  .00005712  00000-0  46793-3 0  9991
2 43677  98.0930 234.0201 0009946 219.8207 140.2286 14.99673114345995
PO-101
1 43678U 18084H   25065.73776953  .00004054  00000-0  35299-3 0  9998
2 43678  98.0951 238.3174 0008108 238.3727 121.6703 14.97501606346180
QO-100
1 43700U 18090A   25065.74480159  .00000133  00000-0  00000+0 0  9994
2 43700   0.0130 222.3010 0001245 136.1709 100.1387  1.00271435 23232
MinXSS-2
1 43758U 18099A   25065.11034293  .00020426  00000-0  91578-3 0  9992
2 43758  97.5144 131.0658 0013995 131.0231 229.2217 15.21164453342434
AO-95
1 43770U 18099N   25065.20928851  .00011681  00000-0  63805-3 0  9993
2 43770  97.5057 124.4547 0011833 177.3359 182.7938 15.14411119342100
RANGE-A
1 43773U 18099R   25065.54408963  .00007365  00000-0  48711-3 0  9993
2 43773  97.4631 116.7182 0012533 152.9765 207.2118 15.07589702341891
MOVE-II
1 43780U 18099Y   25065.42781812  .00074110  00000-0  15358-2 0  9997
2 43780  97.4784 136.1982 0004210 147.9786 212.1719 15.45472812342979
SNUSat 2
1 43782U 18099AA  25065.67496272  .00010551  00000-0  61213-3 0  9990
2 43782  97.4744 122.4069 0014043 120.5030 239.7589 15.12250895342143
SnugLite
1 43784U 18099AC  25065.72160460  .00011907  00000-0  64542-3 0  9999
2 43784  97.4553 121.8508 0005018 122.1165 238.0554 15.14728073342260
ITASat 1
1 43786U 18099AE  25065.58468148  .00009019  00000-0  54339-3 0  9993
2 43786  97.4702 122.0867 0015541 169.7334 190.4217 15.10909156342105
EAGLET 1
1 43790U 18099AJ  25065.69408752  .00006830  00000-0  45085-3 0  9991
2 43790  97.4907 122.4239 0013279 150.4445 209.7536 15.07679737341764
ESEO
1 43792U 18099AL  25065.69136222  .00003678  00000-0  28486-3 0  9996
2 43792  97.4589 116.9026 0011656 122.2992 237.9364 15.01971998341574
CSIM
1 43793U 18099AM  25065.28213907  .00080502  00000-0  16484-2 0  9993
2 43793  97.4965 138.0804 0006051 119.3176 240.8678 15.45788428342794
JO-97
1 43803U 18099AX  25065.68314701  .00014814  00000-0  74271-3 0  9995
2 43803  97.4801 125.7517 0009324 116.3870 243.8322 15.17406194342361
Suomi 100
1 43804U 18099AY  25065.69155390  .00013048  00000-0  69008-3 0  9994
2 43804  97.4868 125.2908 0014495 117.4527 242.8182 15.15498341342311
ISAT
1 43879U 18111D   25065.57406164  .00024379  00000-0  99538-3 0  9996
2 43879  97.6013 338.1971 0010608 157.1061 203.0651 15.24345236339194
UWE-4
1 43880U 18111E   25065.53357146  .00018931  00000-0  84187-3 0  9990
2 43880  97.5950 337.2234 0013231 171.9076 188.2375 15.21469902339159
Sparrow
1 43881U 18111F   25065.29633977  .00024005  00000-0  95393-3 0  9993
2 43881  97.6140 340.4566 0006688 192.2494 167.8582 15.25288828339236
Prox-1
1 44339U 19036A   25065.12563249  .00016111  00000-0  22078-2 0  9993
2 44339  23.9991 327.5016 0007276  60.6892 299.4331 14.76800057303875
SONATE
1 44400U 19038Q   25065.59642911  .00078860  00000-0  88596-3 0  9996
2 44400  97.7085  82.1672 0007323 219.7858 140.2862 15.62334098314610
Taurus 1
1 44530U 19059C   25065.71610050  .00010696  00000-0  20709-2 0  9990
2 44530  98.5931 200.8173 0009167 321.9887  38.0666 14.63477276290057
